Flight Track Log - Related Links

Times and Time Zones

All times are in EDT time to prevent confusion due to time zone crossing. See the SKW5210 flight status page for this flight to view local times or setup timezone preferences in your user account.

Time Position Orientation Groundspeed Altitude Reporting Facility
EDT Latitude Longitude Course Direction KTS MPH feet Rate Location/Type
Thu 11:32:44 PM 45.5947 -122.6006 179° South 139 160 800  Level Seattle Center
Thu 11:33:21 PM 45.6053 -122.6311 296° West 137 158 1,800 1,592 Climbing Seattle Center
Thu 11:33:33 PM 45.6072 -122.6419 284° West 162 186 2,100 2,557 Climbing Seattle Center
Thu 11:34:22 PM 45.6283 -122.6997 298° West 194 223 4,400 2,700 Climbing Seattle Center
Thu 11:34:33 PM 45.6322 -122.7119 294° West 218 251 4,800 2,557 Climbing Seattle Center
Thu 11:35:00 PM 45.2383 -122.5859 179° South  Level Estimated
Thu 11:35:23 PM 45.6439 -122.7867 283° West 244 281 7,000  Level Seattle Center
Thu 11:35:34 PM 45.6333 -122.8042 229° Southwest 256 295 7,600 2,951 Climbing Seattle Center
Thu 11:36:00 PM 45.1215 -122.5822 241° Southwest  Level Estimated
Thu 11:36:24 PM 45.5761 -122.8297 197° South 262 302 10,000  Level Seattle Center
Thu 11:37:00 PM 45.0047 -122.5786 254° West  Level Estimated
Thu 11:37:24 PM 45.5022 -122.8575 195° South 279 321 11,700  Level Seattle Center
Thu 11:38:00 PM 44.8879 -122.5750 179° South  Level Estimated
Thu 11:38:25 PM 45.4153 -122.8919 196° South 323 372 13,300  Level Seattle Center
Thu 11:39:26 PM 45.3256 -122.9264 195° South 333 383 15,500 1,918 Climbing Seattle Center
Thu 11:40:27 PM 45.2344 -122.9633 196° South 340 391 17,200 1,623 Climbing Seattle Center
Thu 11:41:28 PM 45.1442 -123.0089 200° South 345 397 18,800 1,525 Climbing Seattle Center
Thu 11:42:29 PM 45.0508 -123.0561 200° South 351 404 20,300 1,085 Climbing Seattle Center
Thu 11:47:33 PM 44.5581 -123.3019 178° South 382 440 25,400 864 Climbing Seattle Center
Thu 11:50:35 PM 44.2203 -123.3161 180° South 415 478 27,300 815 Climbing Seattle Center
Thu 11:51:00 PM 44.0864 -123.3057 177° South  Level FlightAware Approximate
Thu 11:51:36 PM 44.1081 -123.3119 178° South 411 473 28,700  Level Seattle Center
Thu 11:52:00 PM 43.9697 -123.2982 178° South  Level FlightAware Approximate
Thu 11:52:37 PM 44.0025 -123.3100 179° South 391 450 29,600  Level Seattle Center
Thu 11:53:00 PM 43.8529 -123.2913 178° South  Level FlightAware Approximate
Thu 11:53:38 PM 43.8761 -123.3044 178° South 381 438 30,500  Level Seattle Center
Thu 11:54:39 PM 43.7708 -123.3000 178° South 381 438 30,900 545 Climbing Seattle Center
Thu 11:55:39 PM 43.6656 -123.2964 179° South 381 438 31,600 694 Climbing Seattle Center
Thu 11:56:40 PM 43.5625 -123.2919 178° South 375 432 32,300 639 Climbing Seattle Center
Thu 11:57:41 PM 43.4619 -123.2883 179° South 365 420 32,900 344 Climbing Seattle Center
Thu 11:58:42 PM 43.3611 -123.2842 178° South 362 417 33,000 49 Climbing Seattle Center
Thu 11:59:43 PM 43.2583 -123.2797 178° South 364 419 33,000  Level Seattle Center
Fri 12:00:43 AM 43.1536 -123.2761 179° South 372 428 33,000  Level Seattle Center
Fri 12:01:44 AM 43.0481 -123.2714 178° South 374 430 33,000  Level Seattle Center
Fri 12:02:45 AM 42.9417 -123.2681 179° South 379 436 33,000  Level Seattle Center
Fri 12:03:46 AM 42.8353 -123.2644 179° South 380 437 33,000  Level Seattle Center
Fri 12:04:46 AM 42.7289 -123.2583 178° South 380 437 33,000  Level Seattle Center
Fri 12:05:47 AM 42.6092 -123.2550 179° South 380 437 33,000  Level Seattle Center
Fri 12:06:48 AM 42.5042 -123.2508 178° South 380 437 33,000  Level Seattle Center
Fri 12:07:49 AM 42.3997 -123.2472 179° South 379 436 33,000  Level Seattle Center
Fri 12:08:50 AM 42.2950 -123.2433 178° South 379 436 33,000  Level Seattle Center
Fri 12:09:50 AM 42.1917 -123.2397 179° South 379 436 33,000  Level Seattle Center
Fri 12:10:51 AM 42.0878 -123.2350 178° South 378 435 33,000  Level Seattle Center
Fri 12:11:52 AM 41.9825 -123.2317 179° South 379 436 33,000  Level Seattle Center
Fri 12:12:53 AM 41.8806 -123.2278 178° South 371 427 33,000  Level Seattle Center
Fri 12:13:54 AM 41.7753 -123.2194 177° South 375 432 33,000  Level Seattle Center
Fri 12:14:54 AM 41.6689 -123.2103 176° South 380 437 33,000  Level Seattle Center
Fri 12:15:55 AM 41.5622 -123.2003 176° South 383 441 33,000  Level Seattle Center
Fri 12:16:56 AM 41.4572 -123.1892 175° South 382 440 33,000  Level Seattle Center
Fri 12:17:57 AM 41.3272 -123.1792 177° South 387 445 33,000  Level Seattle Center
Fri 12:18:58 AM 41.2192 -123.1700 176° South 388 447 33,000  Level Seattle Center
Fri 12:19:58 AM 41.1108 -123.1569 175° South 388 447 33,000  Level Seattle Center
Fri 12:20:39 AM 41.0458 -123.1506 176° South 389 448 33,000  Level Oakland Center
Fri 12:21:40 AM 40.9369 -123.1408 176° South 389 448 33,000  Level Oakland Center
Fri 12:22:41 AM 40.8272 -123.1303 176° South 390 449 33,000  Level Oakland Center
Fri 12:23:43 AM 40.6994 -123.1183 176° South 392 451 33,000  Level Oakland Center
Fri 12:24:44 AM 40.5897 -123.1069 175° South 393 452 33,000  Level Oakland Center
Fri 12:25:45 AM 40.4786 -123.0964 176° South 396 456 33,000  Level Oakland Center
Fri 12:26:46 AM 40.3678 -123.0856 176° South 399 459 33,000  Level Oakland Center
Fri 12:27:47 AM 40.2564 -123.0747 176° South 402 463 33,000  Level Oakland Center
Fri 12:28:48 AM 40.1456 -123.0639 176° South 402 463 33,000  Level Oakland Center
Fri 12:29:50 AM 40.0333 -123.0522 175° South 403 464 33,000  Level Oakland Center
Fri 12:30:51 AM 39.9200 -123.0422 176° South 407 468 33,000  Level Oakland Center
Fri 12:31:52 AM 39.7847 -123.0306 176° South 408 470 33,000  Level Oakland Center
Fri 12:32:53 AM 39.6722 -123.0197 176° South 408 470 33,000  Level Oakland Center
Fri 12:33:54 AM 39.5592 -123.0089 176° South 409 471 33,000  Level Oakland Center
Fri 12:34:55 AM 39.4386 -122.9961 175° South 411 473 33,000  Level Oakland Center
Fri 12:35:57 AM 39.3256 -122.9850 176° South 410 472 33,000  Level Oakland Center
Fri 12:36:58 AM 39.2100 -122.9744 176° South 413 475 33,000  Level Oakland Center
Fri 12:37:59 AM 39.0958 -122.9625 175° South 412 474 33,000  Level Oakland Center
Fri 12:39:00 AM 38.9792 -122.9531 176° South 415 478 33,000 -49 Level Oakland Center
Fri 12:40:01 AM 38.8622 -122.9419 176° South 418 481 32,900 -1,230 Descending Oakland Center
Fri 12:41:02 AM 38.7419 -122.9297 175° South 432 497 30,500 -2,488 Descending Oakland Center
Fri 12:42:04 AM 38.6156 -122.9183 176° South 453 521 27,800 -2,634 Descending Oakland Center
Fri 12:43:05 AM 38.4981 -122.9078 176° South 429 494 25,100 -2,656 Descending Oakland Center
Fri 12:44:06 AM 38.3806 -122.8969 176° South 426 490 22,400 -2,951 Descending Oakland Center
Fri 12:45:07 AM 38.2431 -122.8842 176° South 418 481 19,100 -3,098 Descending Oakland Center
Fri 12:46:08 AM 38.1361 -122.8556 168° South 402 463 16,100 -3,000 Descending Oakland Center
Fri 12:47:09 AM 38.0408 -122.7836 149° Southeast 403 464 13,000 -2,508 Descending Oakland Center
Fri 12:48:10 AM 37.9536 -122.7153 148° Southeast 374 430 11,000 -984 Descending Oakland Center
Fri 12:49:11 AM 37.8875 -122.6597 146° Southeast 295 339 11,000  Level Oakland Center
Fri 12:50:12 AM 37.8289 -122.5975 140° Southeast 287 330 11,000  Level Oakland Center
Fri 12:51:13 AM 37.7544 -122.5189 140° Southeast 288 331 11,000  Level Oakland Center
Fri 12:52:14 AM 37.7033 -122.4461 132° Southeast 287 330 11,000 -541 Level Oakland Center
Fri 12:53:15 AM 37.6775 -122.3658 112° Southeast 253 291 9,900 -1,200 Descending Oakland Center
Fri 12:53:49 AM 37.6667 -122.3167 106° East 251 289 9,100 -1,021 Descending Northern Cal TRACON
Fri 12:54:49 AM 37.6333 -122.2500 122° Southeast 226 260 8,300 -1,150 Descending Northern Cal TRACON
Fri 12:55:49 AM 37.6167 -122.1667 104° East 216 249 6,800 -1,450 Descending Northern Cal TRACON
Fri 12:56:49 AM 37.5833 -122.1000 122° Southeast 216 249 5,400 -1,450 Descending Northern Cal TRACON
Fri 12:57:49 AM 37.5333 -122.1167 195° South 212 244 3,900 -1,253 Descending Northern Cal TRACON
Fri 12:58:20 AM 37.5383 -122.1450 283° West 209 241 3,500 -587 Descending Oakland Center
Fri 12:59:21 AM 37.5544 -122.2044 289° West 190 219 3,000 -738 Descending Oakland Center
Fri 01:00:22 AM 37.5731 -122.2556 295° West 175 201 2,000 -885 Descending Oakland Center
Fri 01:01:23 AM 37.5908 -122.3056 294° West 165 190 1,200 -744 Descending Oakland Center
Fri 01:02:23 AM 37.6072 -122.3428 299° West 142 163 500 -700 Descending Oakland Center

Login

Don't have an account? Register now (free) for customized features, flight alerts, and more!